Weather in Selezenikha

Russia / Kirov Oblast     58°17′06″N   50°41′45″E
temp.,
°C
wind,
m/s
gust,
m/s
humid.,
%
clouds,
%
prec.,
mm/h
press.,
hPa
HPBL,
m
2 july, sat
sat200:00+10nne227725 0.0 101819
03:00+9nnw228398 0.0 101820
06:00+13nnw34755 0.0 1017171
09:00+18nw236274 0.0 1016560
12:00+20nw4453100 0.0 10151269
15:00+17nw127286 0.0 101565
18:00+15nnw227491 0.0 101436
21:00+12nne228792 0.0 101531
3 july, sun
sun300:00+12nne368597 0.0 1015151
03:00+12nne3792100 0.0 1015216
06:00+13nne468825 0.0 1015341
09:00+15nne5680100 0.1 1015591
12:00+17nne5670100 0.1 10141087
15:00+20ne3753100 0.1 10132066
18:00+18s0171100 0.0 101333
21:00+15e11744 0.0 101315
4 july, mon
mon400:00+12n228177 0.0 101412
03:00+11nne338786 0.0 101437
06:00+14nne367745 0.0 1015216
09:00+18nne565824 0.0 1015906
12:00+21nne35469 0.0 10151874
15:00+22nne35435 0.0 10151986
18:00+20n3465100 0.0 1015119
21:00+14nne22719 0.0 101611
5 july, tue
tue500:00+12n227541 0.0 101610
03:00+11nnw2278100 0.0 101711
06:00+16n22689 0.0 1017120
09:00+20nw235678 0.0 1017491
12:00+22nw2348100 0.0 10161213
15:00+25wnw24425 0.0 10151701
18:00+23sw33621 0.0 101561
21:00+17wsw45731 0.0 101547
6 july, wed
wed600:00+16w35710 0.0 101556
03:00+15w33730 0.0 101536
06:00+19w34760 0.0 1015144
09:00+24wsw34624 0.0 1014480
12:00+27w34524 0.0 10141214
15:00+28sw344921 0.0 10131913
18:00+24sw487082 0.0 1013211
21:00+20wsw46781 0.0 101495